Date String (YYYY-MM-DD hh:mm:ss) UTC,Instrument flags,Ambient pressure (hPa),Sample flow (lpm),Bypass flow (lpm),Sample temperature (°C),Ambient temperature (°C),ASC tube jacket temperature (°C),LED temperature (°C),Box temperature (°C),Sample RH (%),Span deviation,Mass concentration (μg/m³),Mass concentration (μg/m³),Mass concentration (μg/m³)
DateTimeUTC,F1_M11,P_M11,Q1_M11,Q2_M11,T1_M11,T2_M11,T3_M11,T4_M11,T5_M11,U1_M11,ZSPAN_M11,X2_M11,X0_M11,X1_M11
2022-05-02 04:00:00,,0822.7,4.98,0.00,29.2,28.3,00.0,38.2,30.9,20.8,0000.0,0007.16,0017.08,0004.56
2022-05-02 04:01:00,,0822.7,5.02,0.00,29.2,28.3,00.0,38.2,30.9,20.9,0000.0,0007.15,0016.76,0004.56
2022-05-02 04:02:00,,0822.7,5.00,0.00,29.2,28.3,00.0,38.2,30.9,21.0,0000.0,0007.12,0016.69,0004.57
2022-05-02 04:03:00,,0822.6,5.00,0.00,29.1,28.3,00.0,38.2,30.9,21.0,0000.0,0007.11,0016.70,0004.58
2022-05-02 04:04:00,,0822.6,5.01,0.00,29.1,28.3,00.0,38.2,30.9,21.0,0000.0,0007.17,0017.11,0004.58
2022-05-02 04:05:00,,0822.7,5.01,0.00,29.1,28.3,00.0,38.2,30.9,21.0,0000.0,0007.23,0016.99,0004.60
2022-05-02 04:06:00,,0822.6,4.99,0.00,29.1,28.3,00.0,38.2,30.9,21.1,0000.0,0007.29,0016.46,0004.62
2022-05-02 04:07:00,,0822.7,5.01,0.00,29.1,28.3,00.0,38.1,30.9,21.1,0000.0,0007.35,0016.66,0004.63
2022-05-02 04:08:00,,0822.7,4.98,0.00,29.1,28.3,00.0,38.1,30.9,21.1,0000.0,0007.34,0016.69,0004.63
2022-05-02 04:09:00,,0822.7,5.01,0.00,29.1,28.2,00.0,38.1,30.9,21.2,0000.0,0007.28,0016.34,0004.64
2022-05-02 04:10:00,,0822.7,4.98,0.00,29.1,28.2,00.0,38.1,30.8,21.3,0000.0,0007.25,0016.01,0004.65
2022-05-02 04:11:00,,0822.7,5.01,0.00,29.1,28.2,00.0,38.1,30.8,21.3,0000.0,0007.26,0015.49,0004.66
2022-05-02 04:12:00,,0822.8,4.98,0.00,29.1,28.2,00.0,38.1,30.8,21.3,0000.0,0007.29,0015.48,0004.68
2022-05-02 04:13:00,,0822.9,5.00,0.00,29.1,28.2,00.0,38.1,30.9,21.3,0000.0,0007.28,0015.47,0004.67
2022-05-02 04:14:00,,0823.0,4.98,0.00,29.1,28.2,00.0,38.1,30.8,21.4,0000.0,0007.28,0015.95,0004.68
2022-05-02 04:15:00,,0822.9,5.01,0.00,29.1,28.2,00.0,38.1,30.9,21.3,0000.0,0007.32,0016.48,0004.69
2022-05-02 04:16:00,,0822.9,5.00,0.00,29.1,28.2,00.0,38.1,30.8,21.3,0000.0,0007.27,0016.38,0004.68
2022-05-02 04:17:00,,0822.9,5.00,0.00,29.1,28.2,00.0,38.1,30.8,21.3,0000.0,0007.30,0016.56,0004.67
2022-05-02 04:18:00,,0823.0,4.99,0.00,29.1,28.2,00.0,38.1,30.8,21.3,0000.0,0007.20,0016.28,0004.64
2022-05-02 04:19:00,,0823.0,5.01,0.00,29.1,28.2,00.0,38.1,30.8,21.2,0000.0,0007.12,0015.91,0004.64
2022-05-02 04:20:00,,0823.0,5.00,0.00,29.1,28.2,00.0,38.1,30.8,21.2,0000.0,0007.14,0015.94,0004.63
2022-05-02 04:21:00,,0822.9,5.00,0.00,29.1,28.2,00.0,38.1,30.8,21.2,0000.0,0007.10,0015.76,0004.61
2022-05-02 04:22:00,,0822.9,5.02,0.00,29.1,28.2,00.0,38.1,30.8,21.2,0000.0,0007.04,0015.42,0004.60
2022-05-02 04:23:00,,0822.9,4.99,0.00,29.1,28.2,00.0,38.1,30.8,21.2,0000.0,0006.94,0015.12,0004.58
2022-05-02 04:24:00,,0822.9,5.01,0.00,29.1,28.2,00.0,38.1,30.8,21.2,0000.0,0006.86,0014.90,0004.56
2022-05-02 04:25:00,,0823.0,5.00,0.00,29.1,28.1,00.0,38.1,30.8,21.1,0000.0,0006.85,0014.54,0004.55
2022-05-02 04:26:00,,0823.0,4.99,0.00,29.0,28.1,00.0,38.1,30.7,21.2,0000.0,0006.79,0013.69,0004.52
2022-05-02 04:27:00,,0823.0,4.99,0.00,29.0,28.1,00.0,38.1,30.7,21.2,0000.0,0006.74,0013.50,0004.51
2022-05-02 04:28:00,,0823.0,5.01,0.00,29.0,28.1,00.0,38.0,30.7,21.3,0000.0,0006.66,0013.35,0004.50
2022-05-02 04:29:00,,0823.0,4.99,0.00,29.0,28.1,00.0,38.0,30.7,21.3,0000.0,0006.57,0013.12,0004.48
2022-05-02 04:30:00,,0822.9,5.00,0.00,29.0,28.1,00.0,38.0,30.7,21.3,0000.0,0006.61,0013.27,0004.46
2022-05-02 04:31:00,,0823.0,5.02,0.00,29.0,28.0,00.0,38.0,30.7,21.4,0000.0,0006.57,0013.21,0004.44
2022-05-02 04:32:00,,0822.9,4.98,0.00,29.0,28.0,00.0,38.0,30.7,21.4,0000.0,0006.62,0013.32,0004.44
2022-05-02 04:33:00,,0822.9,5.02,0.00,29.0,28.0,00.0,38.0,30.7,21.4,0000.0,0006.53,0013.09,0004.43
2022-05-02 04:34:00,,0822.8,4.99,0.00,28.9,28.0,00.0,38.0,30.7,21.4,0000.0,0006.54,0013.35,0004.42
2022-05-02 04:35:00,,0822.8,5.01,0.00,28.9,28.0,00.0,38.0,30.7,21.4,0000.0,0006.52,0013.58,0004.42
2022-05-02 04:36:00,,0822.8,4.99,0.00,28.9,28.0,00.0,38.0,30.7,21.5,0000.0,0006.53,0014.16,0004.41
2022-05-02 04:37:00,,0822.7,5.01,0.00,28.9,28.0,00.0,38.0,30.7,21.4,0000.0,0006.53,0014.34,0004.41
2022-05-02 04:38:00,,0822.6,5.00,0.00,28.9,28.0,00.0,38.0,30.6,21.5,0000.0,0006.51,0014.41,0004.40
2022-05-02 04:39:00,,0822.7,4.99,0.00,28.9,28.0,00.0,38.0,30.6,21.4,0000.0,0006.46,0014.16,0004.40
2022-05-02 04:40:00,,0822.7,5.01,0.00,28.9,28.0,00.0,37.9,30.6,21.4,0000.0,0006.53,0014.29,0004.41
2022-05-02 04:41:00,,0822.7,5.00,0.00,28.9,28.0,00.0,37.9,30.6,21.5,0000.0,0006.54,0014.40,0004.41
2022-05-02 04:42:00,,0822.6,4.99,0.00,28.9,28.0,00.0,37.9,30.6,21.5,0000.0,0006.53,0014.41,0004.42
2022-05-02 04:43:00,,0822.6,5.01,0.00,28.9,28.0,00.0,37.9,30.6,21.5,0000.0,0006.42,0014.19,0004.41
2022-05-02 04:44:00,,0822.6,4.98,0.00,28.8,28.0,00.0,37.9,30.6,21.5,0000.0,0006.40,0014.24,0004.41
2022-05-02 04:45:00,,0822.6,5.01,0.00,28.8,27.9,00.0,37.9,30.6,21.5,0000.0,0006.37,0013.96,0004.42
2022-05-02 04:46:00,,0822.6,4.99,0.00,28.8,27.9,00.0,37.9,30.5,21.5,0000.0,0006.31,0013.44,0004.42
2022-05-02 04:47:00,,0822.7,5.01,0.00,28.8,27.9,00.0,37.9,30.5,21.6,0000.0,0006.35,0013.00,0004.42
2022-05-02 04:48:00,,0822.6,4.98,0.00,28.8,27.9,00.0,37.9,30.5,21.6,0000.0,0006.32,0012.93,0004.42
2022-05-02 04:49:00,,0822.6,5.02,0.00,28.8,27.9,00.0,37.8,30.5,21.5,0000.0,0006.31,0013.25,0004.42
2022-05-02 04:50:00,,0822.6,4.99,0.00,28.7,27.8,00.0,37.8,30.4,21.6,0000.0,0006.42,0013.71,0004.42
2022-05-02 04:51:00,,0822.7,5.01,0.00,28.7,27.8,00.0,37.8,30.4,21.6,0000.0,0006.40,0013.77,0004.43
2022-05-02 04:52:00,,0822.7,4.99,0.00,28.7,27.8,00.0,37.8,30.4,21.6,0000.0,0006.36,0013.50,0004.46
2022-05-02 04:53:00,,0822.7,5.01,0.00,28.7,27.8,00.0,37.8,30.4,21.6,0000.0,0006.34,0013.39,0004.47
2022-05-02 04:54:00,,0822.7,5.00,0.00,28.7,27.8,00.0,37.8,30.4,21.5,0000.0,0006.30,0013.24,0004.49
2022-05-02 04:55:00,,0822.7,5.01,0.00,28.7,27.8,00.0,37.8,30.4,21.5,0000.0,0006.31,0013.37,0004.51
2022-05-02 04:56:00,,0822.7,4.99,0.00,28.7,27.8,00.0,37.7,30.4,21.5,0000.0,0006.34,0013.37,0004.54
2022-05-02 04:57:00,,0822.7,5.01,0.00,28.6,27.8,00.0,37.7,30.4,21.5,0000.0,0006.37,0013.51,0004.57
2022-05-02 04:58:00,,0822.7,5.00,0.00,28.6,27.7,00.0,37.7,30.4,21.3,0000.0,0006.34,0013.36,0004.60
2022-05-02 04:59:00,,0822.7,5.01,0.00,28.6,27.7,00.0,37.7,30.4,21.2,0000.0,0006.38,0013.16,0004.63
